Location: Tauranga
(37.6860°S, 176.1670°E)
Time: 16:30:37
(UTC+12:00)

ATLAS 3B R/B - Pass Details

Date: 24 January 2019
Orbit: 1029 x 1166 km, 63.8° (Epoch: 15 April)

Event Time Altitude Azimuth Distance (km) Brightness Sun altitude
Exits shadow 22:18:12 23° 72° (ENE) 2,173 3.8 -17.8°
Maximum altitude 22:18:16 23° 73° (ENE) 2,173 3.8 -17.8°
Drops below altitude 10° 22:23:40 10° 122° (ESE) 3,040 4.9 -18.6°
Sets 22:27:01 0° 135° (SE) 4,027 5.7 -19.0°
